EW2099 Weather Reports


time (UTC)temp
C
wind
direction
speed
KPH
gust
KPH
rain 1hr
cm
rain 24hr
cm
rain mn
cm
humidity
%
barometer
mb
20260507213028 11 82 0.0 3.2 0.00 0.00 0.00 65 1017.4
20260507211522 11 56 0.0 4.8 0.00 0.00 0.00 65 1017.3
20260507210027 11 70 0.0 3.2 0.00 0.00 0.00 65 1017.2
20260507204520 11 59 1.6 6.4 0.00 0.00 0.00 65 1017.3
20260507203020 11 76 1.6 4.8 0.00 0.00 0.00 64 1017.2
20260507201519 11 61 0.0 6.4 0.00 0.00 0.00 63 1017.2
20260507200016 11 74 0.0 3.2 0.00 0.00 0.00 62 1016.9
20260507194530 11 70 0.0 8.0 0.00 0.00 0.00 62 1016.8
20260507193016 11 53 0.0 8.0 0.00 0.00 0.00 62 1016.8
20260507191516 11 60 1.6 6.4 0.00 0.00 0.00 61 1016.7
20260507190020 11 39 0.0 4.8 0.00 0.00 0.00 61 1016.7
20260507184514 11 75 0.0 6.4 0.00 0.00 0.00 61 1016.7
20260507183016 11 70 3.2 8.0 0.00 0.00 0.00 61 1016.7
20260507181513 11 62 3.2 11.3 0.00 0.00 0.00 60 1016.6
20260507180017 12 78 1.6 8.0 0.00 0.00 0.00 59 1016.6
20260507174514 12 60 1.6 11.3 0.00 0.00 0.00 58 1016.6
20260507173029 12 89 3.2 11.3 0.00 0.00 0.00 60 1016.7
20260507171511 12 11 3.2 14.5 0.00 0.00 0.00 60 1016.8
20260507170018 12 44 1.6 12.9 0.00 0.00 0.00 60 1016.8
20260507164520 12 53 3.2 11.3 0.00 0.00 0.00 60 1016.7
20260507163010 12 50 3.2 14.5 0.00 0.00 0.00 60 1016.9
20260507161509 12 85 3.2 11.3 0.00 0.00 0.00 59 1016.9
20260507160009 12 56 4.8 14.5 0.00 0.00 0.00 59 1016.9
20260507154508 12 15 4.8 12.9 0.00 0.00 0.00 59 1016.8
20260507153008 12 34 4.8 14.5 0.00 0.00 0.00 60 1016.8
20260507151507 12 69 3.2 14.5 0.00 0.00 0.00 60 1016.8
20260507150006 12 13 8.0 12.9 0.00 0.00 0.00 59 1016.8
20260507144505 12 39 3.2 12.9 0.00 0.00 0.00 59 1016.8
20260507143016 12 42 6.4 12.9 0.00 0.00 0.00 60 1016.8
20260507141512 12 30 4.8 12.9 0.00 0.00 0.00 61 1016.8
20260507140004 12 18 4.8 16.1 0.00 0.00 0.00 60 1016.9
20260507134504 12 63 4.8 14.5 0.00 0.00 0.00 57 1016.9
20260507133005 12 37 4.8 11.3 0.00 0.00 0.00 56 1016.9
20260507131512 12 37 4.8 12.9 0.00 0.00 0.00 56 1016.8
20260507130002 12 346 4.8 12.9 0.00 0.00 0.00 57 1016.9
20260507124606 12 49 4.8 12.9 0.00 0.00 0.00 59 1016.8
20260507123100 12 344 4.8 14.5 0.00 0.00 0.00 58 1016.7
20260507121559 12 65 3.2 12.9 0.00 0.00 0.00 59 1016.8
20260507120058 12 35 6.4 14.5 0.00 0.00 0.00 58 1016.7
20260507114609 12 344 6.4 12.9 0.00 0.00 0.00 58 1016.7
20260507113128 12 60 6.4 14.5 0.00 0.00 0.00 58 1016.7
20260507111558 12 19 4.8 14.5 0.00 0.00 0.00 58 1016.8
20260507110055 12 6 8.0 17.7 0.00 0.00 0.00 57 1016.7
20260507104555 13 66 6.4 17.7 0.00 0.00 0.00 56 1016.7
20260507103055 13 84 4.8 12.9 0.00 0.00 0.00 53 1016.7
20260507101551 13 44 3.2 12.9 0.00 0.00 0.00 54 1016.7
20260507100050 13 89 6.4 14.5 0.00 0.00 0.00 54 1016.7
20260507094548 14 65 8.0 17.7 0.00 0.00 0.00 53 1016.6
20260507093049 14 37 9.7 19.3 0.00 0.00 0.00 54 1016.5
20260507091551 14 127 4.8 11.3 0.00 0.00 0.00 52 1016.4
20260507090043 14 167 4.8 14.5 0.00 0.00 0.00 52 1016.3
20260507084546 14 107 4.8 16.1 0.00 0.00 0.00 53 1016.2
20260507083040 14 115 3.2 12.9 0.00 0.00 0.00 54 1016.2
20260507081546 13 71 6.4 12.9 0.00 0.00 0.00 54 1016.2
20260507080040 13 96 4.8 12.9 0.00 0.00 0.00 55 1016.1
20260507074536 12 56 3.2 11.3 0.00 0.00 0.00 59 1016.1
20260507073030 12 143 1.6 6.4 0.00 0.00 0.00 62 1016.1
20260507071528 11 98 3.2 9.7 0.00 0.00 0.00 63 1016.0
20260507070027 11 60 3.2 9.7 0.00 0.00 0.00 63 1016.0
20260507064526 11 101 1.6 8.0 0.00 0.00 0.00 65 1015.9
20260507063028 10 63 4.8 8.0 0.00 0.00 0.00 65 1015.8
20260507061524 10 67 3.2 8.0 0.00 0.00 0.00 66 1015.7
20260507060022 10 96 0.0 9.7 0.00 0.00 0.00 68 1015.5
20260507054521 10 64 4.8 11.3 0.00 0.00 0.00 67 1015.5
20260507053020 10 63 1.6 11.3 0.00 0.00 0.00 68 1015.3
20260507051519 10 60 1.6 8.0 0.00 0.00 0.00 67 1015.3
20260507050025 10 108 0.0 3.2 0.00 0.00 0.00 67 1015.1
20260507044516 10 67 1.6 6.4 0.00 0.00 0.00 67 1014.9
20260507043023 10 80 0.0 4.8 0.00 0.00 0.00 67 1014.7
20260507041514 10 70 0.0 4.8 0.00 0.00 0.00 67 1014.8
20260507040013 10 70 1.6 4.8 0.00 0.00 0.00 67 1014.7
20260507034521 10 84 1.6 8.0 0.00 0.00 0.00 67 1014.6
20260507033014 10 51 3.2 6.4 0.00 0.00 0.00 67 1014.4
20260507031508 9 78 0.0 4.8 0.00 0.00 0.00 67 1014.4
20260507030007 9 80 0.0 3.2 0.00 0.00 0.00 67 1014.3
20260507024503 10 87 0.0 4.8 0.00 0.00 0.00 66 1014.2
20260507023006 10 68 1.6 8.0 0.00 0.00 0.00 65 1014.1
20260507021559 10 83 1.6 9.7 0.00 0.00 0.00 64 1014.1
20260507020103 10 81 1.6 8.0 0.00 0.00 0.00 63 1013.8
20260507014556 11 62 4.8 12.9 0.00 0.00 0.00 62 1013.6
20260507013053 11 37 4.8 16.1 0.00 0.00 0.00 62 1013.6
20260507011551 11 37 3.2 9.7 0.00 0.00 0.00 64 1013.5
20260507010049 11 64 0.0 6.4 0.00 0.00 0.00 64 1013.5
20260507004548 11 48 0.0 4.8 0.00 0.00 0.00 64 1013.4
20260507003054 11 29 0.0 4.8 0.00 0.00 0.00 64 1013.3
20260507001609 11 32 0.0 3.2 0.00 0.00 0.00 64 1013.4
20260507000046 11 11 0.0 3.2 0.00 0.00 0.00 64 1013.4
20260506234551 11 65 1.6 8.0 0.00 0.00 0.00 64 1013.3
20260506233043 11 30 4.8 12.9 0.00 0.00 0.00 66 1013.2
20260506231540 11 49 6.4 17.7 0.00 0.00 0.00 65 1013.2
20260506230050 11 37 6.4 16.1 0.00 0.00 0.00 64 1013.2
20260506224532 11 34 3.2 14.5 0.00 0.00 0.00 66 1013.2
20260506223033 11 10 6.4 16.1 0.00 0.00 0.00 66 1013.2
20260506221530 11 38 6.4 17.7 0.00 0.00 0.00 65 1013.1
20260506220033 11 350 6.4 17.7 0.00 0.00 0.00 66 1013.1
20260506214526 11 44 6.4 14.5 0.00 0.00 0.00 66 1013.1